| time (UTC) | temp C | wind direction | speed KPH | gust KPH | rain 1hr cm | rain 24hr cm | rain mn cm | humidity % | barometer mb |
| 20260903033748 | 28 | 328 | 1.6 | 4.8 | 0.00 | 0.00 | 0.00 | 64 | 1021.5 |
| 20260903033249 | 28 | 0 | 0.0 | 1.6 | 0.00 | 0.00 | 0.00 | 64 | 1021.6 |
| 20260903032748 | 28 | 0 | 0.0 | 1.6 | 0.00 | 0.00 | 0.00 | 64 | 1021.6 |
| 20260903032248 | 28 | 0 | 0.0 | 3.2 | 0.00 | 0.00 | 0.00 | 64 | 1021.6 |
| 20260903031748 | 28 | 0 | 0.0 | 3.2 | 0.00 | 0.00 | 0.00 | 64 | 1021.6 |
| 20260903031248 | 28 | 0 | 0.0 | 3.2 | 0.00 | 0.00 | 0.00 | 65 | 1021.6 |
| 20260903030748 | 28 | 0 | 0.0 | 4.8 | 0.00 | 0.00 | 0.00 | 65 | 1021.7 |
| 20260903030248 | 28 | 0 | 0.0 | 6.4 | 0.00 | 0.00 | 0.00 | 66 | 1021.7 |
| 20260903025748 | 28 | 0 | 0.0 | 6.4 | 0.00 | 0.00 | 0.00 | 65 | 1021.7 |
| 20260903025248 | 28 | 0 | 0.0 | 6.4 | 0.00 | 0.00 | 0.00 | 65 | 1021.8 |
| 20260903024748 | 28 | 0 | 0.0 | 6.4 | 0.00 | 0.00 | 0.00 | 64 | 1021.9 |
| 20260903024248 | 28 | 0 | 0.0 | 6.4 | 0.00 | 0.00 | 0.00 | 64 | 1022.0 |
| 20260903023748 | 28 | 0 | 0.0 | 4.8 | 0.00 | 0.00 | 0.00 | 64 | 1022.0 |
| 20260903023248 | 28 | 0 | 0.0 | 4.8 | 0.00 | 0.00 | 0.00 | 64 | 1022.0 |
| 20260903022311 | 28 | 0 | 0.0 | 4.8 | 0.00 | 0.00 | 0.00 | 63 | 1022.0 |
| 20260903021811 | 28 | 0 | 0.0 | 3.2 | 0.00 | 0.00 | 0.00 | 64 | 1022.0 |
| 20260903021311 | 28 | 0 | 0.0 | 0.0 | 0.00 | 0.00 | 0.00 | 61 | 1022.1 |
| 20260903020813 | 28 | 0 | 0.0 | 0.0 | 0.00 | 0.00 | 0.00 | 59 | 1022.1 |
| 20260903020228 | 28 | 0 | 0.0 | 0.0 | 0.00 | 0.00 | 0.00 | 60 | 1022.2 |
| 20260903015728 | 28 | 0 | 0.0 | 0.0 | 0.00 | 0.00 | 0.00 | 61 | 1022.1 |
| 20260903015228 | 28 | 0 | 0.0 | 0.0 | 0.00 | 0.00 | 0.00 | 62 | 1022.1 |
| 20260903014728 | 28 | 0 | 0.0 | 3.2 | 0.00 | 0.00 | 0.00 | 62 | 1022.1 |
| 20260903014229 | 28 | 0 | 0.0 | 3.2 | 0.00 | 0.00 | 0.00 | 64 | 1022.1 |
| 20260903013729 | 28 | 0 | 0.0 | 6.4 | 0.00 | 0.00 | 0.00 | 64 | 1022.2 |
| 20260903013228 | 28 | 0 | 0.0 | 6.4 | 0.00 | 0.00 | 0.00 | 63 | 1022.2 |
| 20260903012729 | 28 | 0 | 0.0 | 0.0 | 0.00 | 0.00 | 0.00 | 62 | 1022.2 |
| 20260903012228 | 28 | 0 | 0.0 | 0.0 | 0.00 | 0.00 | 0.00 | 61 | 1022.1 |
| 20260903011728 | 29 | 0 | 0.0 | 0.0 | 0.00 | 0.00 | 0.00 | 59 | 1022.1 |
| 20260903011229 | 29 | 0 | 0.0 | 0.0 | 0.00 | 0.00 | 0.00 | 58 | 1022.1 |
| 20260903010728 | 29 | 0 | 0.0 | 0.0 | 0.00 | 0.00 | 0.00 | 58 | 1021.9 |
| 20260903010228 | 29 | 0 | 0.0 | 0.0 | 0.00 | 0.00 | 0.00 | 57 | 1021.9 |
| 20260903005728 | 29 | 0 | 0.0 | 0.0 | 0.00 | 0.00 | 0.00 | 57 | 1021.9 |
| 20260903005228 | 29 | 0 | 0.0 | 0.0 | 0.00 | 0.00 | 0.00 | 56 | 1021.8 |
| 20260903004728 | 29 | 0 | 0.0 | 0.0 | 0.00 | 0.00 | 0.00 | 55 | 1021.9 |
| 20260903004228 | 29 | 0 | 0.0 | 0.0 | 0.00 | 0.00 | 0.00 | 56 | 1021.8 |
| 20260903003728 | 29 | 0 | 0.0 | 0.0 | 0.00 | 0.00 | 0.00 | 57 | 1021.8 |
| 20260903003228 | 29 | 0 | 0.0 | 6.4 | 0.00 | 0.00 | 0.00 | 58 | 1021.7 |
| 20260903002728 | 29 | 0 | 0.0 | 6.4 | 0.00 | 0.00 | 0.00 | 59 | 1021.7 |
| 20260903002228 | 29 | 0 | 0.0 | 4.8 | 0.00 | 0.00 | 0.00 | 61 | 1021.6 |
| 20260903001229 | 29 | 0 | 0.0 | 0.0 | 0.00 | 0.00 | 0.00 | 61 | 1021.6 |
| 20260903000727 | 29 | 0 | 0.0 | 3.2 | 0.00 | 0.00 | 0.00 | 61 | 1021.5 |
| 20260903000227 | 29 | 0 | 0.0 | 4.8 | 0.00 | 0.00 | 0.00 | 60 | 1021.5 |
| 20260902235727 | 29 | 0 | 0.0 | 4.8 | 0.00 | 0.00 | 0.00 | 59 | 1021.5 |
| 20260902235227 | 29 | 0 | 0.0 | 3.2 | 0.00 | 0.00 | 0.00 | 60 | 1021.4 |
| 20260902234515 | 29 | 0 | 0.0 | 4.8 | 0.00 | 0.00 | 0.00 | 60 | 1021.4 |
| 20260902234015 | 29 | 328 | 1.6 | 6.4 | 0.00 | 0.00 | 0.00 | 60 | 1021.3 |
| 20260902233515 | 29 | 328 | 1.6 | 6.4 | 0.00 | 0.00 | 0.00 | 60 | 1021.3 |
| 20260902233015 | 29 | 328 | 1.6 | 4.8 | 0.00 | 0.00 | 0.00 | 60 | 1021.3 |
| 20260902232515 | 29 | 0 | 0.0 | 4.8 | 0.00 | 0.00 | 0.00 | 60 | 1021.3 |
| 20260902232015 | 29 | 0 | 0.0 | 4.8 | 0.00 | 0.00 | 0.00 | 60 | 1021.4 |
| 20260902231518 | 29 | 0 | 0.0 | 4.8 | 0.00 | 0.00 | 0.00 | 60 | 1021.3 |
| 20260902231015 | 30 | 0 | 0.0 | 0.0 | 0.00 | 0.00 | 0.00 | 61 | 1021.3 |
| 20260902230516 | 30 | 0 | 0.0 | 4.8 | 0.00 | 0.00 | 0.00 | 61 | 1021.2 |
| 20260902230015 | 30 | 0 | 0.0 | 4.8 | 0.00 | 0.00 | 0.00 | 62 | 1021.2 |
| 20260902225515 | 30 | 0 | 0.0 | 3.2 | 0.00 | 0.00 | 0.00 | 62 | 1021.2 |
| 20260902225015 | 30 | 0 | 0.0 | 3.2 | 0.00 | 0.00 | 0.00 | 61 | 1021.2 |
| 20260902224514 | 30 | 0 | 0.0 | 0.0 | 0.00 | 0.00 | 0.00 | 61 | 1021.2 |
| 20260902224015 | 30 | 0 | 0.0 | 0.0 | 0.00 | 0.00 | 0.00 | 61 | 1021.2 |
| 20260902223514 | 30 | 0 | 0.0 | 0.0 | 0.00 | 0.00 | 0.00 | 61 | 1021.1 |
| 20260902223015 | 31 | 0 | 0.0 | 6.4 | 0.00 | 0.00 | 0.00 | 60 | 1021.2 |
| 20260902222515 | 31 | 0 | 0.0 | 6.4 | 0.00 | 0.00 | 0.00 | 61 | 1021.2 |
| 20260902222015 | 31 | 0 | 0.0 | 4.8 | 0.00 | 0.00 | 0.00 | 60 | 1021.2 |
| 20260902221515 | 31 | 0 | 0.0 | 4.8 | 0.00 | 0.00 | 0.00 | 59 | 1021.2 |
| 20260902221014 | 31 | 0 | 0.0 | 4.8 | 0.00 | 0.00 | 0.00 | 59 | 1021.4 |
| 20260902220515 | 31 | 0 | 0.0 | 4.8 | 0.00 | 0.00 | 0.00 | 58 | 1021.4 |
| 20260902220015 | 31 | 0 | 0.0 | 0.0 | 0.00 | 0.00 | 0.00 | 59 | 1021.3 |
| 20260902215515 | 31 | 0 | 0.0 | 3.2 | 0.00 | 0.00 | 0.00 | 57 | 1021.4 |
| 20260902215015 | 32 | 0 | 0.0 | 3.2 | 0.00 | 0.00 | 0.00 | 57 | 1021.5 |
| 20260902214515 | 32 | 0 | 0.0 | 0.0 | 0.00 | 0.00 | 0.00 | 56 | 1021.4 |
| 20260902214014 | 32 | 0 | 0.0 | 0.0 | 0.00 | 0.00 | 0.00 | 56 | 1021.5 |
| 20260902213515 | 32 | 0 | 0.0 | 1.6 | 0.00 | 0.00 | 0.00 | 57 | 1021.4 |
| 20260902213015 | 32 | 0 | 0.0 | 1.6 | 0.00 | 0.00 | 0.00 | 55 | 1021.3 |
| 20260902212515 | 32 | 0 | 0.0 | 3.2 | 0.00 | 0.00 | 0.00 | 55 | 1021.3 |
| 20260902212014 | 32 | 0 | 0.0 | 3.2 | 0.00 | 0.00 | 0.00 | 55 | 1021.3 |
| 20260902211514 | 32 | 0 | 0.0 | 0.0 | 0.00 | 0.00 | 0.00 | 55 | 1021.4 |
| 20260902211015 | 32 | 0 | 0.0 | 0.0 | 0.00 | 0.00 | 0.00 | 55 | 1021.3 |
| 20260902210515 | 32 | 0 | 0.0 | 0.0 | 0.00 | 0.00 | 0.00 | 54 | 1021.3 |
| 20260902210015 | 32 | 0 | 0.0 | 0.0 | 0.00 | 0.00 | 0.00 | 54 | 1021.3 |
| 20260902205515 | 32 | 0 | 0.0 | 3.2 | 0.00 | 0.00 | 0.00 | 54 | 1021.4 |
| 20260902205015 | 32 | 0 | 0.0 | 3.2 | 0.00 | 0.00 | 0.00 | 56 | 1021.3 |
| 20260902204515 | 32 | 0 | 0.0 | 3.2 | 0.00 | 0.00 | 0.00 | 53 | 1021.4 |
| 20260902204015 | 33 | 0 | 0.0 | 1.6 | 0.00 | 0.00 | 0.00 | 55 | 1021.4 |
| 20260902203514 | 33 | 0 | 0.0 | 4.8 | 0.00 | 0.00 | 0.00 | 54 | 1021.4 |
| 20260902203014 | 33 | 0 | 0.0 | 4.8 | 0.00 | 0.00 | 0.00 | 53 | 1021.4 |
| 20260902202514 | 33 | 0 | 0.0 | 3.2 | 0.00 | 0.00 | 0.00 | 53 | 1021.4 |
| 20260902202015 | 32 | 0 | 0.0 | 3.2 | 0.00 | 0.00 | 0.00 | 54 | 1021.4 |
| 20260902201514 | 32 | 0 | 0.0 | 4.8 | 0.00 | 0.00 | 0.00 | 54 | 1021.6 |
| 20260902201014 | 32 | 0 | 0.0 | 4.8 | 0.00 | 0.00 | 0.00 | 56 | 1021.6 |
| 20260902200514 | 32 | 0 | 0.0 | 6.4 | 0.00 | 0.00 | 0.00 | 56 | 1021.7 |
| 20260902200014 | 32 | 0 | 0.0 | 6.4 | 0.00 | 0.00 | 0.00 | 55 | 1021.7 |
| 20260902195514 | 32 | 0 | 0.0 | 6.4 | 0.00 | 0.00 | 0.00 | 58 | 1021.8 |
| 20260902195014 | 31 | 0 | 0.0 | 6.4 | 0.00 | 0.00 | 0.00 | 59 | 1021.8 |
| 20260902194515 | 31 | 0 | 0.0 | 6.4 | 0.00 | 0.00 | 0.00 | 60 | 1021.9 |
| 20260902194015 | 30 | 0 | 0.0 | 4.8 | 0.00 | 0.00 | 0.00 | 60 | 1021.9 |
| 20260902193437 | 30 | 0 | 0.0 | 6.4 | 0.00 | 0.00 | 0.00 | 62 | 1022.0 |
| 20260902192936 | 30 | 328 | 1.6 | 6.4 | 0.00 | 0.00 | 0.00 | 62 | 1022.1 |
| 20260902192439 | 29 | 0 | 0.0 | 4.8 | 0.00 | 0.00 | 0.00 | 63 | 1022.1 |
| 20260902191936 | 29 | 0 | 0.0 | 4.8 | 0.00 | 0.00 | 0.00 | 62 | 1022.2 |
| 20260902191436 | 29 | 0 | 0.0 | 6.4 | 0.00 | 0.00 | 0.00 | 62 | 1022.2 |
| 20260902190936 | 30 | 0 | 0.0 | 6.4 | 0.00 | 0.00 | 0.00 | 61 | 1022.2 |
| 20260902190436 | 30 | 328 | 1.6 | 6.4 | 0.00 | 0.00 | 0.00 | 62 | 1022.3 |
| 20260902185936 | 30 | 0 | 0.0 | 4.8 | 0.00 | 0.00 | 0.00 | 58 | 1022.3 |
| 20260902185439 | 31 | 0 | 0.0 | 9.7 | 0.00 | 0.00 | 0.00 | 58 | 1022.4 |
| 20260902184936 | 31 | 328 | 1.6 | 9.7 | 0.00 | 0.00 | 0.00 | 60 | 1022.4 |
| 20260902184436 | 31 | 0 | 0.0 | 6.4 | 0.00 | 0.00 | 0.00 | 56 | 1022.4 |
| 20260902183936 | 31 | 0 | 0.0 | 6.4 | 0.00 | 0.00 | 0.00 | 56 | 1022.4 |
| 20260902183437 | 31 | 0 | 0.0 | 4.8 | 0.00 | 0.00 | 0.00 | 56 | 1022.4 |
| 20260902182936 | 32 | 0 | 0.0 | 6.4 | 0.00 | 0.00 | 0.00 | 54 | 1022.4 |
| 20260902182439 | 32 | 0 | 0.0 | 6.4 | 0.00 | 0.00 | 0.00 | 53 | 1022.4 |
| 20260902181937 | 32 | 0 | 0.0 | 4.8 | 0.00 | 0.00 | 0.00 | 57 | 1022.5 |
| 20260902181436 | 31 | 0 | 0.0 | 4.8 | 0.00 | 0.00 | 0.00 | 58 | 1022.5 |
| 20260902180936 | 31 | 328 | 1.6 | 4.8 | 0.00 | 0.00 | 0.00 | 58 | 1022.5 |
| 20260902180436 | 31 | 0 | 0.0 | 8.0 | 0.00 | 0.00 | 0.00 | 58 | 1022.6 |
| 20260902175936 | 31 | 328 | 4.8 | 8.0 | 0.00 | 0.00 | 0.00 | 57 | 1022.7 |
| 20260902175437 | 31 | 328 | 3.2 | 6.4 | 0.00 | 0.00 | 0.00 | 59 | 1022.7 |
| 20260902174936 | 31 | 0 | 0.0 | 6.4 | 0.00 | 0.00 | 0.00 | 58 | 1022.8 |
| 20260902174436 | 31 | 328 | 1.6 | 6.4 | 0.00 | 0.00 | 0.00 | 60 | 1022.8 |
| 20260902173936 | 30 | 328 | 1.6 | 6.4 | 0.00 | 0.00 | 0.00 | 59 | 1022.9 |
| 20260902173436 | 30 | 328 | 1.6 | 6.4 | 0.00 | 0.00 | 0.00 | 60 | 1022.9 |
| 20260902172937 | 30 | 0 | 0.0 | 4.8 | 0.00 | 0.00 | 0.00 | 60 | 1023.0 |
| 20260902172418 | 30 | 0 | 0.0 | 1.6 | 0.00 | 0.00 | 0.00 | 60 | 1023.0 |
| 20260902171606 | 30 | 0 | 0.0 | 4.8 | 0.00 | 0.00 | 0.00 | 61 | 1023.1 |
| 20260902171106 | 30 | 328 | 1.6 | 4.8 | 0.00 | 0.00 | 0.00 | 62 | 1023.1 |
| 20260902170606 | 30 | 0 | 0.0 | 0.0 | 0.00 | 0.00 | 0.00 | 63 | 1023.0 |
| 20260902170416 | 30 | 0 | 0.0 | 3.2 | 0.00 | 0.00 | 0.00 | 62 | 1023.2 |
| 20260902170414 | 30 | 0 | 0.0 | 3.2 | 0.00 | 0.00 | 0.00 | 62 | 1023.2 |
| 20260902170106 | 30 | 0 | 0.0 | 3.2 | 0.00 | 0.00 | 0.00 | 62 | 1023.2 |
| 20260902165606 | 30 | 0 | 0.0 | 3.2 | 0.00 | 0.00 | 0.00 | 62 | 1023.2 |
| 20260902165409 | 29 | 0 | 0.0 | 3.2 | 0.00 | 0.00 | 0.00 | 65 | 1023.2 |
| 20260902165109 | 29 | 0 | 0.0 | 3.2 | 0.00 | 0.00 | 0.00 | 65 | 1023.2 |
| 20260902164916 | 29 | 0 | 0.0 | 3.2 | 0.00 | 0.00 | 0.00 | 64 | 1023.2 |
| 20260902164606 | 29 | 0 | 0.0 | 3.2 | 0.00 | 0.00 | 0.00 | 64 | 1023.2 |
| 20260902164239 | 30 | 0 | 0.0 | 4.8 | 0.00 | 0.00 | 0.00 | 63 | 1023.3 |
| 20260902164106 | 30 | 0 | 0.0 | 4.8 | 0.00 | 0.00 | 0.00 | 63 | 1023.3 |
| 20260902163606 | 30 | 0 | 0.0 | 6.4 | 0.00 | 0.00 | 0.00 | 61 | 1023.4 |
| 20260902163109 | 31 | 328 | 3.2 | 6.4 | 0.00 | 0.00 | 0.00 | 59 | 1023.5 |
| 20260902162608 | 31 | 328 | 1.6 | 6.4 | 0.00 | 0.00 | 0.00 | 58 | 1023.5 |
| 20260902162106 | 31 | 0 | 0.0 | 3.2 | 0.00 | 0.00 | 0.00 | 57 | 1023.5 |
| 20260902161607 | 31 | 0 | 0.0 | 3.2 | 0.00 | 0.00 | 0.00 | 59 | 1023.5 |
| 20260902161107 | 31 | 0 | 0.0 | 6.4 | 0.00 | 0.00 | 0.00 | 59 | 1023.5 |
| 20260902160606 | 31 | 0 | 0.0 | 6.4 | 0.00 | 0.00 | 0.00 | 61 | 1023.5 |
| 20260902160107 | 31 | 328 | 1.6 | 6.4 | 0.00 | 0.00 | 0.00 | 61 | 1023.5 |
| 20260902155606 | 31 | 0 | 0.0 | 3.2 | 0.00 | 0.00 | 0.00 | 62 | 1023.6 |
| 20260902155107 | 30 | 0 | 0.0 | 4.8 | 0.00 | 0.00 | 0.00 | 62 | 1023.6 |
| 20260902154608 | 30 | 0 | 0.0 | 4.8 | 0.00 | 0.00 | 0.00 | 63 | 1023.6 |
| 20260902154107 | 30 | 0 | 0.0 | 3.2 | 0.00 | 0.00 | 0.00 | 61 | 1023.6 |
| 20260902153606 | 30 | 0 | 0.0 | 3.2 | 0.00 | 0.00 | 0.00 | 62 | 1023.6 |
| 20260902153106 | 30 | 0 | 0.0 | 0.0 | 0.00 | 0.00 | 0.00 | 62 | 1023.6 |
| 20260902152608 | 30 | 0 | 0.0 | 0.0 | 0.00 | 0.00 | 0.00 | 62 | 1023.6 |
| 20260902152106 | 30 | 0 | 0.0 | 0.0 | 0.00 | 0.00 | 0.00 | 64 | 1023.7 |
| 20260902151609 | 30 | 0 | 0.0 | 3.2 | 0.00 | 0.00 | 0.00 | 64 | 1023.7 |
| 20260902151109 | 30 | 0 | 0.0 | 3.2 | 0.00 | 0.00 | 0.00 | 65 | 1023.7 |
| 20260902150517 | 30 | 0 | 0.0 | 4.8 | 0.00 | 0.00 | 0.00 | 62 | 1023.8 |
| 20260902150018 | 30 | 0 | 0.0 | 3.2 | 0.00 | 0.00 | 0.00 | 63 | 1023.7 |
| 20260902145520 | 29 | 0 | 0.0 | 4.8 | 0.00 | 0.00 | 0.00 | 64 | 1023.6 |
| 20260902145018 | 29 | 0 | 0.0 | 6.4 | 0.00 | 0.00 | 0.00 | 64 | 1023.6 |
| 20260902144517 | 29 | 328 | 1.6 | 6.4 | 0.00 | 0.00 | 0.00 | 62 | 1023.6 |
| 20260902144017 | 30 | 0 | 0.0 | 3.2 | 0.00 | 0.00 | 0.00 | 63 | 1023.5 |
| 20260902143521 | 30 | 0 | 0.0 | 3.2 | 0.00 | 0.00 | 0.00 | 64 | 1023.5 |
| 20260902143020 | 29 | 0 | 0.0 | 3.2 | 0.00 | 0.00 | 0.00 | 64 | 1023.4 |
| 20260902142517 | 29 | 0 | 0.0 | 4.8 | 0.00 | 0.00 | 0.00 | 65 | 1023.3 |
| 20260902142017 | 29 | 0 | 0.0 | 4.8 | 0.00 | 0.00 | 0.00 | 62 | 1023.3 |
| 20260902141609 | 29 | 0 | 0.0 | 0.0 | 0.00 | 0.00 | 0.00 | 62 | 1023.3 |
| 20260902141517 | 29 | 0 | 0.0 | 0.0 | 0.00 | 0.00 | 0.00 | 62 | 1023.3 |
| 20260902141240 | 28 | 0 | 0.0 | 0.0 | 0.00 | 0.00 | 0.00 | 64 | 1023.3 |
| 20260902141017 | 29 | 0 | 0.0 | 0.0 | 0.00 | 0.00 | 0.00 | 64 | 1023.3 |
| 20260902140519 | 28 | 0 | 0.0 | 0.0 | 0.00 | 0.00 | 0.00 | 64 | 1023.3 |
| 20260902140059 | 28 | 0 | 0.0 | 3.2 | 0.00 | 0.00 | 0.00 | 62 | 1023.1 |
| 20260902140019 | 28 | 0 | 0.0 | 1.6 | 0.00 | 0.00 | 0.00 | 63 | 1023.2 |
| 20260902135519 | 28 | 0 | 0.0 | 1.6 | 0.00 | 0.00 | 0.00 | 65 | 1023.3 |
| 20260902135018 | 28 | 0 | 0.0 | 0.0 | 0.00 | 0.00 | 0.00 | 63 | 1023.2 |
| 20260902134519 | 28 | 0 | 0.0 | 3.2 | 0.00 | 0.00 | 0.00 | 62 | 1023.1 |
| 20260902134018 | 28 | 0 | 0.0 | 3.2 | 0.00 | 0.00 | 0.00 | 64 | 1023.2 |
| 20260902133517 | 29 | 0 | 0.0 | 3.2 | 0.00 | 0.00 | 0.00 | 64 | 1023.3 |
| 20260902133018 | 29 | 0 | 0.0 | 0.0 | 0.00 | 0.00 | 0.00 | 63 | 1023.2 |
| 20260902132517 | 28 | 0 | 0.0 | 0.0 | 0.00 | 0.00 | 0.00 | 66 | 1023.2 |
| 20260902132017 | 28 | 0 | 0.0 | 0.0 | 0.00 | 0.00 | 0.00 | 68 | 1023.2 |
| 20260902131521 | 28 | 0 | 0.0 | 4.8 | 0.00 | 0.00 | 0.00 | 67 | 1023.2 |
| 20260902131231 | 28 | 0 | 0.0 | 4.8 | 0.00 | 0.00 | 0.00 | 67 | 1023.2 |
| 20260902131020 | 28 | 0 | 0.0 | 4.8 | 0.00 | 0.00 | 0.00 | 67 | 1023.2 |
| 20260902130521 | 28 | 0 | 0.0 | 1.6 | 0.00 | 0.00 | 0.00 | 66 | 1023.4 |
| 20260902130017 | 28 | 0 | 0.0 | 0.0 | 0.00 | 0.00 | 0.00 | 67 | 1023.4 |
| 20260902125519 | 27 | 0 | 0.0 | 0.0 | 0.00 | 0.00 | 0.00 | 66 | 1023.5 |
| 20260902124953 | 27 | 0 | 0.0 | 1.6 | 0.00 | 0.00 | 0.00 | 69 | 1023.4 |
| 20260902124242 | 27 | 0 | 0.0 | 4.8 | 0.00 | 0.00 | 0.00 | 73 | 1023.4 |
| 20260902123742 | 26 | 0 | 0.0 | 4.8 | 0.00 | 0.00 | 0.00 | 71 | 1023.3 |
| 20260902123243 | 26 | 0 | 0.0 | 3.2 | 0.00 | 0.00 | 0.00 | 71 | 1023.4 |
| 20260902122742 | 26 | 0 | 0.0 | 0.0 | 0.00 | 0.00 | 0.00 | 73 | 1023.4 |
| 20260902122242 | 25 | 0 | 0.0 | 3.2 | 0.00 | 0.00 | 0.00 | 75 | 1023.3 |
| 20260902121742 | 25 | 0 | 0.0 | 6.4 | 0.00 | 0.00 | 0.00 | 75 | 1023.2 |
| 20260902121242 | 25 | 328 | 1.6 | 9.7 | 0.00 | 0.00 | 0.00 | 75 | 1023.2 |
| 20260902120742 | 25 | 328 | 3.2 | 9.7 | 0.00 | 0.00 | 0.00 | 76 | 1023.1 |
| 20260902120242 | 25 | 328 | 4.8 | 8.0 | 0.00 | 0.00 | 0.00 | 76 | 1023.2 |
| 20260902115742 | 25 | 328 | 3.2 | 9.7 | 0.00 | 0.00 | 0.00 | 75 | 1023.1 |
| 20260902115243 | 25 | 328 | 4.8 | 12.9 | 0.00 | 0.00 | 0.00 | 75 | 1023.0 |
| 20260902114742 | 25 | 328 | 6.4 | 12.9 | 0.00 | 0.00 | 0.00 | 74 | 1022.9 |
| 20260902114243 | 25 | 328 | 6.4 | 12.9 | 0.00 | 0.00 | 0.00 | 74 | 1022.9 |
| 20260902113742 | 25 | 328 | 8.0 | 12.9 | 0.00 | 0.00 | 0.00 | 74 | 1022.8 |
| 20260902113243 | 25 | 328 | 4.8 | 12.9 | 0.00 | 0.00 | 0.00 | 74 | 1022.8 |
| 20260902112743 | 25 | 328 | 6.4 | 12.9 | 0.00 | 0.00 | 0.00 | 74 | 1022.8 |
| 20260902112243 | 25 | 328 | 6.4 | 12.9 | 0.00 | 0.00 | 0.00 | 74 | 1022.7 |
| 20260902111742 | 25 | 328 | 6.4 | 9.7 | 0.00 | 0.00 | 0.00 | 74 | 1022.7 |
| 20260902111242 | 25 | 328 | 6.4 | 9.7 | 0.00 | 0.00 | 0.00 | 74 | 1022.7 |
| 20260902110744 | 25 | 328 | 4.8 | 9.7 | 0.00 | 0.00 | 0.00 | 73 | 1022.7 |
| 20260902110242 | 25 | 328 | 6.4 | 9.7 | 0.00 | 0.00 | 0.00 | 73 | 1022.6 |
| 20260902105742 | 25 | 328 | 4.8 | 9.7 | 0.00 | 0.00 | 0.00 | 73 | 1022.6 |
| 20260902105242 | 25 | 328 | 4.8 | 9.7 | 0.00 | 0.00 | 0.00 | 74 | 1022.6 |
| 20260902104744 | 25 | 328 | 4.8 | 8.0 | 0.00 | 0.00 | 0.00 | 74 | 1022.6 |
| 20260902104243 | 25 | 328 | 4.8 | 9.7 | 0.00 | 0.00 | 0.00 | 75 | 1022.7 |
| 20260902103742 | 25 | 328 | 4.8 | 12.9 | 0.00 | 0.00 | 0.00 | 75 | 1022.7 |
| 20260902103242 | 25 | 328 | 6.4 | 12.9 | 0.00 | 0.00 | 0.00 | 75 | 1022.7 |
| 20260902102707 | 25 | 328 | 4.8 | 9.7 | 0.00 | 0.00 | 0.00 | 75 | 1022.7 |
| 20260902102101 | 25 | 328 | 6.4 | 9.7 | 0.00 | 0.00 | 0.00 | 75 | 1022.6 |
| 20260902101558 | 25 | 328 | 6.4 | 9.7 | 0.00 | 0.00 | 0.00 | 75 | 1022.6 |
| 20260902101058 | 25 | 328 | 6.4 | 12.9 | 0.00 | 0.00 | 0.00 | 75 | 1022.6 |
| 20260902100600 | 25 | 328 | 6.4 | 12.9 | 0.00 | 0.00 | 0.00 | 75 | 1022.5 |
| 20260902100059 | 25 | 328 | 4.8 | 9.7 | 0.00 | 0.00 | 0.00 | 75 | 1022.5 |
| 20260902095559 | 25 | 328 | 4.8 | 14.5 | 0.00 | 0.00 | 0.00 | 75 | 1022.6 |
| 20260902095058 | 25 | 328 | 4.8 | 14.5 | 0.00 | 0.00 | 0.00 | 75 | 1022.6 |
| 20260902094558 | 25 | 328 | 4.8 | 9.7 | 0.00 | 0.00 | 0.00 | 75 | 1022.6 |
| 20260902094058 | 25 | 328 | 3.2 | 8.0 | 0.00 | 0.00 | 0.00 | 75 | 1022.6 |
| 20260902093559 | 25 | 328 | 4.8 | 9.7 | 0.00 | 0.00 | 0.00 | 75 | 1022.5 |
| 20260902093103 | 25 | 328 | 3.2 | 9.7 | 0.00 | 0.00 | 0.00 | 75 | 1022.4 |
| 20260902092558 | 25 | 328 | 6.4 | 9.7 | 0.00 | 0.00 | 0.00 | 75 | 1022.4 |
| 20260902092058 | 25 | 328 | 4.8 | 12.9 | 0.00 | 0.00 | 0.00 | 75 | 1022.4 |
| 20260902091600 | 25 | 328 | 6.4 | 12.9 | 0.00 | 0.00 | 0.00 | 75 | 1022.4 |
| 20260902091058 | 25 | 328 | 4.8 | 12.9 | 0.00 | 0.00 | 0.00 | 75 | 1022.4 |
| 20260902090558 | 25 | 328 | 4.8 | 12.9 | 0.00 | 0.00 | 0.00 | 74 | 1022.5 |
| 20260902090058 | 25 | 328 | 6.4 | 12.9 | 0.00 | 0.00 | 0.00 | 75 | 1022.5 |
| 20260902085558 | 25 | 328 | 6.4 | 12.9 | 0.00 | 0.00 | 0.00 | 74 | 1022.5 |
| 20260902085059 | 25 | 328 | 4.8 | 9.7 | 0.00 | 0.00 | 0.00 | 75 | 1022.5 |
| 20260902084601 | 25 | 328 | 4.8 | 9.7 | 0.00 | 0.00 | 0.00 | 75 | 1022.4 |
| 20260902084058 | 25 | 328 | 3.2 | 14.5 | 0.00 | 0.00 | 0.00 | 75 | 1022.4 |
| 20260902083558 | 25 | 328 | 8.0 | 14.5 | 0.00 | 0.00 | 0.00 | 75 | 1022.3 |
| 20260902083058 | 25 | 328 | 6.4 | 14.5 | 0.00 | 0.00 | 0.00 | 75 | 1022.3 |
| 20260902082558 | 25 | 328 | 8.0 | 14.5 | 0.00 | 0.00 | 0.00 | 75 | 1022.2 |
| 20260902082058 | 25 | 328 | 8.0 | 12.9 | 0.00 | 0.00 | 0.00 | 75 | 1022.3 |
| 20260902081558 | 25 | 328 | 6.4 | 12.9 | 0.00 | 0.00 | 0.00 | 75 | 1022.2 |
| 20260902081058 | 25 | 328 | 4.8 | 9.7 | 0.00 | 0.00 | 0.00 | 74 | 1022.3 |
| 20260902080300 | 25 | 328 | 3.2 | 9.7 | 0.00 | 0.00 | 0.00 | 75 | 1022.2 |
| 20260902080227 | 25 | 328 | 3.2 | 9.7 | 0.00 | 0.00 | 0.00 | 75 | 1022.2 |
| 20260902075725 | 25 | 328 | 4.8 | 12.9 | 0.00 | 0.00 | 0.00 | 75 | 1022.2 |
| 20260902075231 | 25 | 328 | 4.8 | 14.5 | 0.00 | 0.00 | 0.00 | 75 | 1022.3 |
| 20260902074727 | 25 | 328 | 6.4 | 14.5 | 0.00 | 0.00 | 0.00 | 75 | 1022.2 |
| 20260902074226 | 25 | 328 | 6.4 | 9.7 | 0.00 | 0.00 | 0.00 | 75 | 1022.3 |
| 20260902073728 | 25 | 328 | 3.2 | 9.7 | 0.00 | 0.00 | 0.00 | 75 | 1022.3 |
| 20260902073226 | 25 | 328 | 3.2 | 9.7 | 0.00 | 0.00 | 0.00 | 75 | 1022.3 |
| 20260902072725 | 25 | 328 | 4.8 | 9.7 | 0.00 | 0.00 | 0.00 | 75 | 1022.4 |
| 20260902072227 | 25 | 328 | 3.2 | 9.7 | 0.00 | 0.00 | 0.00 | 74 | 1022.4 |
| 20260902071725 | 25 | 328 | 4.8 | 12.9 | 0.00 | 0.00 | 0.00 | 74 | 1022.5 |
| 20260902071225 | 25 | 328 | 4.8 | 12.9 | 0.00 | 0.00 | 0.00 | 74 | 1022.5 |
| 20260902070725 | 25 | 328 | 3.2 | 9.7 | 0.00 | 0.00 | 0.00 | 74 | 1022.5 |
| 20260902070435 | 25 | 328 | 1.6 | 8.0 | 0.00 | 0.00 | 0.00 | 73 | 1022.5 |
| 20260902070225 | 25 | 328 | 1.6 | 8.0 | 0.00 | 0.00 | 0.00 | 73 | 1022.5 |
| 20260902065725 | 25 | 328 | 1.6 | 8.0 | 0.00 | 0.00 | 0.00 | 73 | 1022.5 |
| 20260902065226 | 25 | 328 | 1.6 | 14.5 | 0.00 | 0.00 | 0.00 | 73 | 1022.5 |
| 20260902064726 | 25 | 328 | 3.2 | 14.5 | 0.00 | 0.00 | 0.00 | 73 | 1022.4 |
| 20260902064226 | 25 | 328 | 3.2 | 9.7 | 0.00 | 0.00 | 0.00 | 72 | 1022.5 |
| 20260902063728 | 25 | 328 | 1.6 | 12.9 | 0.00 | 0.00 | 0.00 | 72 | 1022.4 |
| 20260902063231 | 25 | 328 | 3.2 | 12.9 | 0.00 | 0.00 | 0.00 | 72 | 1022.5 |
| 20260902062725 | 25 | 328 | 3.2 | 6.4 | 0.00 | 0.00 | 0.00 | 72 | 1022.5 |
| 20260902062226 | 25 | 0 | 0.0 | 8.0 | 0.00 | 0.00 | 0.00 | 71 | 1022.5 |
| 20260902061727 | 25 | 328 | 1.6 | 8.0 | 0.00 | 0.00 | 0.00 | 72 | 1022.5 |
| 20260902061227 | 25 | 0 | 0.0 | 6.4 | 0.00 | 0.00 | 0.00 | 72 | 1022.4 |
| 20260902060725 | 25 | 0 | 0.0 | 6.4 | 0.00 | 0.00 | 0.00 | 72 | 1022.5 |
| 20260902060229 | 25 | 0 | 0.0 | 6.4 | 0.00 | 0.00 | 0.00 | 72 | 1022.4 |
| 20260902055729 | 25 | 0 | 0.0 | 8.0 | 0.00 | 0.00 | 0.00 | 72 | 1022.3 |
| 20260902055230 | 25 | 328 | 3.2 | 8.0 | 0.00 | 0.00 | 0.00 | 72 | 1022.2 |
| 20260902054726 | 25 | 328 | 1.6 | 12.9 | 0.00 | 0.00 | 0.00 | 71 | 1022.2 |
| 20260902054226 | 25 | 328 | 4.8 | 12.9 | 0.00 | 0.00 | 0.00 | 71 | 1022.2 |
| 20260902053727 | 25 | 328 | 1.6 | 8.0 | 0.00 | 0.00 | 0.00 | 70 | 1022.2 |
| 20260902053227 | 25 | 328 | 1.6 | 4.8 | 0.00 | 0.00 | 0.00 | 70 | 1022.2 |
| 20260902052726 | 26 | 328 | 1.6 | 6.4 | 0.00 | 0.00 | 0.00 | 70 | 1022.2 |
| 20260902052225 | 26 | 0 | 0.0 | 6.4 | 0.00 | 0.00 | 0.00 | 70 | 1022.2 |
| 20260902051727 | 26 | 0 | 0.0 | 8.0 | 0.00 | 0.00 | 0.00 | 70 | 1022.1 |
| 20260902051230 | 26 | 328 | 1.6 | 8.0 | 0.00 | 0.00 | 0.00 | 70 | 1022.1 |
| 20260902050725 | 26 | 328 | 1.6 | 9.7 | 0.00 | 0.00 | 0.00 | 71 | 1022.1 |
| 20260902050227 | 25 | 328 | 1.6 | 9.7 | 0.00 | 0.00 | 0.00 | 71 | 1022.1 |
| 20260902045725 | 25 | 328 | 3.2 | 8.0 | 0.00 | 0.00 | 0.00 | 71 | 1021.9 |
| 20260902045308 | 25 | 328 | 1.6 | 6.4 | 0.00 | 0.00 | 0.00 | 71 | 1021.9 |
| 20260902045227 | 25 | 328 | 1.6 | 6.4 | 0.00 | 0.00 | 0.00 | 71 | 1021.9 |
| 20260902044255 | 26 | 328 | 1.6 | 8.0 | 0.00 | 0.00 | 0.00 | 70 | 1022.1 |
| 20260902043757 | 26 | 0 | 0.0 | 8.0 | 0.00 | 0.00 | 0.00 | 70 | 1022.1 |
| 20260902043254 | 26 | 328 | 1.6 | 8.0 | 0.00 | 0.00 | 0.00 | 70 | 1022.1 |
| 20260902042755 | 26 | 328 | 3.2 | 9.7 | 0.00 | 0.00 | 0.00 | 69 | 1022.1 |
| 20260902042259 | 26 | 328 | 1.6 | 12.9 | 0.00 | 0.00 | 0.00 | 69 | 1022.1 |
| 20260902041754 | 26 | 328 | 3.2 | 12.9 | 0.00 | 0.00 | 0.00 | 69 | 1022.1 |
| 20260902041256 | 26 | 328 | 3.2 | 9.7 | 0.00 | 0.00 | 0.00 | 68 | 1022.1 |
| 20260902040754 | 26 | 328 | 1.6 | 8.0 | 0.00 | 0.00 | 0.00 | 68 | 1022.2 |
| 20260902040254 | 26 | 328 | 1.6 | 8.0 | 0.00 | 0.00 | 0.00 | 67 | 1022.3 |
| 20260902035754 | 26 | 328 | 1.6 | 9.7 | 0.00 | 0.00 | 0.00 | 68 | 1022.2 |
| 20260902035258 | 26 | 328 | 4.8 | 9.7 | 0.00 | 0.00 | 0.00 | 68 | 1022.2 |
| 20260902034754 | 26 | 328 | 4.8 | 9.7 | 0.00 | 0.00 | 0.00 | 68 | 1022.2 |
| 20260902034258 | 26 | 328 | 3.2 | 9.7 | 0.00 | 0.00 | 0.00 | 69 | 1022.1 |